"2016-04-03 00:00:00",1513371,3.899,179.2,2.722,0.262,15.03,105.473,13.28,14.34,19.61,0,110.7,13.07,14.08,141.2
"2016-04-03 00:00:30",1513372,4.441,173.4,5.372,0.219,15.14,105.473,13.28,14.33,19.67,0,110.7,13.07,14.08,135.4
"2016-04-03 00:01:00",1513373,4.903,182.8,3.863,0.55,15.17,105.473,13.28,14.33,19.65,0,110.7,13.07,14.08,144.8
"2016-04-03 00:01:30",1513374,3.461,181.5,6.46,0.377,15.2,105.473,13.28,14.34,19.73,0,110.7,13.07,14.08,143.5
"2016-04-03 00:02:00",1513375,3.445,180.9,3.994,0.327,15.3,105.473,13.28,14.34,19.81,0,110.7,13.07,14.08,142.9
"2016-04-03 00:02:30",1513376,4.291,184.4,7.65,0.478,15.36,105.473,13.28,14.33,19.68,0,110.7,13.07,14.08,146.4
"2016-04-03 00:03:00",1513377,4.998,184.9,10.32,0.571,15.49,105.473,13.28,14.33,19.83,0,110.7,13.07,14.08,146.9
"2016-04-03 00:03:30",1513378,4.868,171.5,6.629,0.48,15.5,105.473,13.28,14.33,20.23,0,110.7,13.07,14.08,133.5
"2016-04-03 00:04:00",1513379,4.096,166.9,11.55,0.249,15.48,105.4657,13.26,14.31,20.53,0,110.7,13.07,14.06,128.9
"2016-04-03 00:04:30",1513380,3.687,171.7,10.65,1.492,16.06,105.4313,13.18,14.26,20.42,0,110.7,13.02,13.97,133.7
"2016-04-03 00:05:00",1513381,5.495,163.6,10.64,1.375,17.87,105.4062,13.11,14.42,20.43,0,110.7,13.02,13.91,125.6
"2016-04-03 00:05:30",1513382,4.196,159.5,4.316,1.058,15.63,105.3992,13.09,14.16,20.29,0,110.6,13.02,13.89,121.5
"2016-04-03 00:06:00",1513383,3.544,163.3,3.195,0.263,15.1,105.3967,13.09,14.13,20.31,0,110.7,13.06,13.89,125.3
"2016-04-03 00:06:30",1513384,3.73,158.5,5.46,0.326,14.99,105.3998,13.1,14.12,20.34,0,110.6,13.06,13.89,120.5
"2016-04-03 00:07:00",1513385,4.004,151.4,2.681,0.364,14.95,105.4046,13.11,14.12,20.37,0,110.6,13.06,13.91,113.4
"2016-04-03 00:07:30",1513386,3.346,146,6.615,0.225,15.02,105.4054,13.11,14.11,20.38,0,110.7,13.06,13.91,108.0
"2016-04-03 00:08:00",1513387,3.525,153.8,4.212,0.23,15.19,105.4054,13.11,14.11,20.42,0,110.7,13.06,13.91,115.8
"2016-04-03 00:08:30",1513388,3.09,156.7,4.689,0.161,15.32,105.4054,13.11,14.13,20.45,0,110.7,13.06,13.91,118.7
"2016-04-03 00:09:00",1513389,2.803,170.2,5.931,0.255,15.33,105.4054,13.11,14.12,20.42,0,110.7,13.06,13.91,132.2
"2016-04-03 00:09:30",1513390,3.906,176.5,4.073,0.579,15.39,105.406,13.11,14.14,20.33,0,110.6,13.06,13.91,138.5
"2016-04-03 00:10:00",1513391,4.798,179.2,3.602,0.249,15.44,105.4108,13.12,14.16,20.51,0,110.6,13.06,13.92,141.2
"2016-04-03 00:10:30",1513392,5.896,164.7,4.036,0.418,15.46,105.4102,13.12,14.17,20.46,0,110.6,13.06,13.92,126.7
"2016-04-03 00:11:00",1513393,5.394,162.1,5.051,0.45,15.48,105.4105,13.12,14.16,20.41,0,110.6,13.06,13.92,124.1
"2016-04-03 00:11:30",1513394,7.515,174.7,8.68,1.503,19.18,105.4184,13.14,14.42,20.7,0,110.6,13.02,13.94,136.7
"2016-04-03 00:12:00",1513395,7.021,177,7.048,1.415,18.94,105.4296,13.17,14.38,20.49,0,110.6,13.02,13.97,139.0
"2016-04-03 00:12:30",1513396,4.963,163.9,5.201,0.811,15,105.4361,13.19,14.17,20.33,0,110.7,13.02,13.99,125.9
"2016-04-03 00:13:00",1513397,5.024,163.9,4.074,0.327,14.48,105.4401,13.2,14.18,20.39,0,110.7,13.07,14.00,125.9
"2016-04-03 00:13:30",1513398,4.199,155.2,4.33,0.349,14.54,105.4322,13.18,14.17,20.41,0,110.6,13.07,13.98,117.2
"2016-04-03 00:14:00",1513399,3.378,183.7,9.14,0.259,14.69,105.4083,13.12,14.18,20.55,0,110.6,13.07,13.92,145.7
"2016-04-03 00:14:30",1513400,3.536,202.6,6.655,0.235,14.83,105.4087,13.12,14.15,20.65,0,110.6,13.07,13.92,164.6
"2016-04-03 00:15:00",1513401,2.82,205.1,2.829,0.103,15,105.4078,13.12,14.13,19.98,0,110.6,13.07,13.91,167.1
"2016-04-03 00:15:30",1513402,3.099,184.9,6.343,0.287,15.08,105.4078,13.12,14.12,19.81,0,110.6,13.07,13.91,146.9
"2016-04-03 00:16:00",1513403,3.914,176.3,3.831,0.3,15.19,105.4084,13.12,14.13,19.78,0,110.6,13.07,13.92,138.3
"2016-04-03 00:16:30",1513404,3.7,176.5,3.866,0.314,15.3,105.4093,13.12,14.11,19.7,0,110.6,13.07,13.92,138.5
"2016-04-03 00:17:00",1513405,4.014,164.3,2.654,0.195,15.33,105.4122,13.13,14.13,19.81,0,110.6,13.07,13.93,126.3
"2016-04-03 00:17:30",1513406,3.944,168.7,2.399,0.143,15.4,105.4125,13.13,14.14,20.06,0,110.6,13.07,13.93,130.7
"2016-04-03 00:18:00",1513407,4.398,172.2,1.657,0.194,15.41,105.4125,13.13,14.12,20.15,0,110.6,13.07,13.93,134.2
"2016-04-03 00:18:30",1513408,5.224,178.8,6.615,1.208,16.55,105.4156,13.14,14.26,20.14,0,110.6,13.02,13.93,140.8
"2016-04-03 00:19:00",1513409,5.511,176.5,7.952,1.467,17.17,105.4204,13.15,14.27,20.13,0,110.6,13.02,13.95,138.5
"2016-04-03 00:19:30",1513410,4.913,176.4,5.619,0.26,15.25,105.4314,13.18,14.2,19.98,0,110.6,13.07,13.97,138.4
"2016-04-03 00:20:00",1513411,4.444,189.3,2.628,0.256,15.19,105.4374,13.19,14.17,19.9,0,110.6,13.07,13.99,151.3
"2016-04-03 00:20:30",1513412,3.581,179.7,6.337,0.219,15.12,105.4402,13.2,14.18,19.95,0,110.6,13.07,14.00,141.7
"2016-04-03 00:21:00",1513413,3.717,168.6,1.73,0.131,15.1,105.4428,13.21,14.18,20.06,0,110.6,13.07,14.00,130.6
"2016-04-03 00:21:30",1513414,3.251,169.4,7.394,0.283,15.21,105.4456,13.21,14.18,19.98,0,110.6,13.07,14.01,131.4
"2016-04-03 00:22:00",1513415,4.208,158.6,5.331,0.347,15.3,105.4434,13.21,14.19,19.85,0,110.6,13.07,14.01,120.6
"2016-04-03 00:22:30",1513416,4.406,156.4,6.367,0.376,15.34,105.4488,13.22,14.19,19.98,0,110.6,13.07,14.02,118.4
"2016-04-03 00:23:00",1513417,4.17,163,2.001,0.411,15.39,105.4529,13.23,14.2,19.83,0,110.6,13.07,14.03,125.0
"2016-04-03 00:23:30",1513418,4.904,163.9,3.346,0.267,15.65,105.4514,13.23,14.28,19.98,0,110.6,13.07,14.03,125.9
"2016-04-03 00:24:00",1513419,6.609,171.5,8.99,1.493,18.99,105.4576,13.24,14.47,20.2,0,110.6,13.02,14.04,133.5
"2016-04-03 00:24:30",1513420,6.073,169.5,9.14,1.448,18.14,105.457,13.24,14.38,20.37,0,110.6,13.02,14.04,131.5
"2016-04-03 00:25:00",1513421,5.378,176.7,8.25,1.543,17.45,105.4576,13.24,14.36,20.39,0,110.6,13.01,14.04,138.7
"2016-04-03 00:25:30",1513422,5.322,178.1,7.907,1.444,16.16,105.4582,13.25,14.33,20.14,0,110.6,13.01,14.04,140.1
"2016-04-03 00:26:00",1513423,4.302,174.7,3.972,0.307,14.08,105.4565,13.24,14.22,19.94,0,110.6,13.06,14.04,136.7
"2016-04-03 00:26:30",1513424,4.522,178.4,1.63,0.099,14.11,105.4606,13.25,14.21,20.01,0,110.6,13.06,14.05,140.4
"2016-04-03 00:27:00",1513425,4.144,172.5,3.525,0.222,14.3,105.461,13.25,14.23,19.9,0,110.6,13.06,14.05,134.5
"2016-04-03 00:27:30",1513426,4.103,173.4,2.11,0.208,14.54,105.4577,13.24,14.22,19.8,0,110.6,13.06,14.04,135.4
"2016-04-03 00:28:00",1513427,3.51,174.1,4.423,0.33,14.77,105.4541,13.23,14.22,19.95,0,110.6,13.06,14.03,136.1
"2016-04-03 00:28:30",1513428,3.258,171.3,3.481,0.307,14.93,105.4509,13.23,14.23,19.82,0,110.6,13.07,14.02,133.3
"2016-04-03 00:29:00",1513429,3.743,171.6,2.189,0.156,15.09,105.4445,13.21,14.23,19.7,0,110.6,13.07,14.01,133.6
"2016-04-03 00:29:30",1513430,3.542,171.2,5.176,0.185,15.21,105.4386,13.2,14.2,19.66,0,110.6,13.07,13.99,133.2
"2016-04-03 00:30:00",1513431,4.52,180.4,4.994,0.489,15.4,105.4389,13.2,14.21,19.67,0,110.6,13.07,13.99,142.4
"2016-04-03 00:30:30",1513432,5.461,190.7,7.543,0.344,15.65,105.4392,13.2,14.21,19.43,0,110.6,13.07,13.99,152.7
"2016-04-03 00:31:00",1513433,5.186,184.3,6.576,0.516,15.73,105.4395,13.2,14.21,19.22,0,110.6,13.07,14.00,146.3
"2016-04-03 00:31:30",1513434,6.05,208.5,8.48,1.368,17.29,105.4383,13.19,14.31,19.46,0,110.6,13.02,13.99,170.5
"2016-04-03 00:32:00",1513435,7.48,218.5,8.38,1.569,19.22,105.4395,13.2,14.46,19.25,0,110.6,13.02,14.00,180.5
"2016-04-03 00:32:30",1513436,5.613,224.4,9.32,1.297,16.6,105.4398,13.2,14.31,19.17,0,110.6,13.03,14.00,186.4
"2016-04-03 00:33:00",1513437,3.702,212,4.443,0.46,14.82,105.441,13.2,14.19,19.1,0,110.6,13.07,14.00,174.0
"2016-04-03 00:33:30",1513438,4.038,189.8,6.513,0.305,14.63,105.441,13.2,14.2,19.26,0,110.6,13.07,14.00,151.8
"2016-04-03 00:34:00",1513439,5.401,199,11.29,1.336,17.02,105.441,13.2,14.41,19.74,0,110.6,13.02,14.00,161.0
"2016-04-03 00:34:30",1513440,4.759,193.7,9.01,1.162,16.12,105.4458,13.21,14.3,19.53,0,110.6,13.02,14.01,155.7
"2016-04-03 00:35:00",1513441,4.091,195.9,3.752,0.153,14.78,105.4523,13.23,14.19,19.64,0,110.6,13.07,14.03,157.9
"2016-04-03 00:35:30",1513442,4.3,194.5,6,0.183,14.74,105.4591,13.25,14.2,19.72,0,110.6,13.07,14.05,156.5
"2016-04-03 00:36:00",1513443,3.897,188.4,3.381,0.213,14.96,105.465,13.26,14.22,19.66,0,110.6,13.07,14.06,150.4
"2016-04-03 00:36:30",1513444,3.601,182.2,2.982,0.305,15.11,105.4669,13.27,14.22,19.65,0,110.6,13.07,14.07,144.2
"2016-04-03 00:37:00",1513445,3.653,178.6,3.827,0.459,15.23,105.4664,13.27,14.23,19.65,0,110.6,13.07,14.06,140.6
"2016-04-03 00:37:30",1513446,5.173,175.8,6.126,1.416,16.77,105.4678,13.27,14.29,19.74,0,110.6,13.03,14.07,137.8
"2016-04-03 00:38:00",1513447,5.131,176,6.286,1.395,17.08,105.4667,13.27,14.41,19.86,0,110.6,13.03,14.07,138.0
"2016-04-03 00:38:30",1513448,4.852,176.1,7.125,1.274,16.34,105.4633,13.26,14.27,19.64,0,110.6,13.03,14.06,138.1
"2016-04-03 00:39:00",1513449,4.554,179.6,6.002,1.093,15.74,105.452,13.23,14.24,19.72,0,110.6,13.03,14.03,141.6
"2016-04-03 00:39:30",1513450,5.225,179.1,7.35,1.291,16.74,105.4436,13.21,14.42,19.95,0,110.6,13.03,14.01,141.1
"2016-04-03 00:40:00",1513451,4.979,173.6,7.667,1.339,15.85,105.441,13.2,14.25,19.86,0,110.6,13.03,14.00,135.6
"2016-04-03 00:40:30",1513452,4.008,168.2,1.426,0.087,14.46,105.441,13.2,14.22,19.84,0,110.6,13.07,14.00,130.2
"2016-04-03 00:41:00",1513453,4.099,166.8,1.541,0.139,14.48,105.441,13.2,14.22,19.84,0,110.6,13.07,14.00,128.8
"2016-04-03 00:41:30",1513454,3.982,164.7,1.549,0.085,14.66,105.441,13.2,14.22,19.84,0,110.6,13.07,14.00,126.7
"2016-04-03 00:42:00",1513455,4.002,167.9,2.854,0.229,14.83,105.4405,13.2,14.21,19.77,0,110.6,13.07,14.00,129.9
"2016-04-03 00:42:30",1513456,5.689,185.4,11.49,1.39,17.55,105.4345,13.18,14.33,19.89,0,110.6,13.02,13.98,147.4
"2016-04-03 00:43:00",1513457,4.702,185.2,8.12,1.372,16.87,105.43,13.17,14.3,20,0,110.6,13.02,13.97,147.2
"2016-04-03 00:43:30",1513458,3.709,174.4,4.437,0.232,15.22,105.423,13.16,14.18,19.88,0,110.6,13.07,13.95,136.4
"2016-04-03 00:44:00",1513459,4.566,175,7.069,1.174,16.54,105.4129,13.13,14.3,20.03,0,110.6,13.02,13.93,137.0
"2016-04-03 00:44:30",1513460,4.437,179.2,5.544,1.227,16.29,105.4072,13.11,14.28,20,0,110.6,13.02,13.91,141.2
"2016-04-03 00:45:00",1513461,3.762,174,3.771,0.214,14.8,105.4072,13.11,14.15,19.76,0,110.6,13.07,13.91,136.0
"2016-04-03 00:45:30",1513462,3.618,171.8,1.894,0.206,14.82,105.4072,13.11,14.13,19.73,0,110.6,13.07,13.91,133.8
"2016-04-03 00:46:00",1513463,3.467,167.1,1.378,0.17,14.89,105.4072,13.11,14.14,19.83,0,110.6,13.07,13.91,129.1
"2016-04-03 00:46:30",1513464,3.8,169.1,1.66,0.136,15.03,105.4072,13.11,14.14,19.87,0,110.6,13.08,13.91,131.1
"2016-04-03 00:47:00",1513465,4.679,179.6,6.206,1.306,17.01,105.4038,13.11,14.33,20.03,0,110.6,13.03,13.90,141.6
"2016-04-03 00:47:30",1513466,4.639,182.2,8.71,1.395,16.81,105.3991,13.09,14.24,20.03,0,110.6,13.03,13.89,144.2
"2016-04-03 00:48:00",1513467,3.668,168.8,1.933,0.126,14.71,105.3982,13.09,14.11,19.92,0,110.6,13.08,13.89,130.8
"2016-04-03 00:48:30",1513468,3.61,171.3,3.582,0.177,14.63,105.3917,13.08,14.11,19.87,0,110.6,13.08,13.87,133.3
"2016-04-03 00:49:00",1513469,3.533,179.4,4.051,0.198,14.75,105.3858,13.06,14.1,19.89,0,110.6,13.08,13.86,141.4
"2016-04-03 00:49:30",1513470,3.528,168.4,4.089,0.265,14.91,105.3779,13.04,14.11,19.91,0,110.6,13.08,13.84,130.4
"2016-04-03 00:50:00",1513471,4.439,170.5,8.35,1.271,16.52,105.3734,13.03,14.19,19.99,0,110.6,13.03,13.83,132.5
"2016-04-03 00:50:30",1513472,4.525,176.6,7.703,1.311,16.83,105.3734,13.03,14.26,20.18,0,110.6,13.03,13.83,138.6
"2016-04-03 00:51:00",1513473,5.122,176.5,8.7,1.578,17.83,105.3734,13.03,14.29,20.2,0,110.6,13.03,13.83,138.5
"2016-04-03 00:51:30",1513474,5.009,171.8,8.35,1.434,17.53,105.3734,13.03,14.21,20.02,0,110.6,13.03,13.83,133.8
"2016-04-03 00:52:00",1513475,3.518,166.4,2.279,0.208,14.99,105.3734,13.03,14.07,19.89,0,110.6,13.08,13.83,128.4
"2016-04-03 00:52:30",1513476,4.152,173.5,4.596,0.504,14.88,105.3732,13.03,14.06,19.89,0,110.6,13.08,13.83,135.5
"2016-04-03 00:53:00",1513477,4.456,186.9,8.7,0.475,15.1,105.3723,13.03,14.06,19.65,0,110.6,13.08,13.82,148.9
"2016-04-03 00:53:30",1513478,3.633,184.5,5.645,0.973,15.29,105.3672,13.01,14.05,19.66,0,110.6,13.08,13.81,146.5
"2016-04-03 00:54:00",1513479,2.892,177.5,13.06,1,15.97,105.3664,13.01,14.04,19.57,0,110.6,13.04,13.81,139.5
"2016-04-03 00:54:30",1513480,4.405,165.4,8.74,1.461,17.69,105.3647,13.01,14.27,19.9,0,110.5,13.04,13.80,127.4
"2016-04-03 00:55:00",1513481,4.615,168.6,7.109,1.136,15.89,105.3653,13.01,14.03,19.82,0,110.6,13.04,13.80,130.6
"2016-04-03 00:55:30",1513482,4.115,182.6,6.516,0.484,14.99,105.3628,13,14.03,19.83,0,110.6,13.08,13.80,144.6
"2016-04-03 00:56:00",1513483,3.978,172.2,8.23,0.775,14.96,105.3613,13,14.02,19.87,0,110.6,13.08,13.79,134.2
"2016-04-03 00:56:30",1513484,5.345,185.1,7.516,1.455,17.74,105.3608,13,14.21,20.12,0,110.6,13.04,13.79,147.1
"2016-04-03 00:57:00",1513485,3.565,180.9,7.087,1.005,15.74,105.3619,13,14.08,19.93,0,110.6,13.04,13.80,142.9
"2016-04-03 00:57:30",1513486,3.353,180.4,7.694,0.316,14.93,105.3568,12.99,14.02,19.86,0,110.6,13.07,13.78,142.4
"2016-04-03 00:58:00",1513487,3.802,172.4,6.375,0.434,14.96,105.3419,12.95,13.99,19.75,0,110.6,13.07,13.74,134.4
"2016-04-03 00:58:30",1513488,4.352,195.7,3.771,0.375,15.25,105.3408,12.94,13.99,19.61,0,110.6,13.07,13.74,157.7
"2016-04-03 00:59:00",1513489,5.934,193.7,12.29,1.241,16.83,105.3396,12.94,14.13,19.96,0,110.6,13.03,13.74,155.7
"2016-04-03 00:59:30",1513490,5.91,206.8,5.46,1.555,17.24,105.3426,12.95,14.09,20.09,0,110.5,13.02,13.75,168.8
"2016-04-03 01:00:00",1513491,4.785,208.6,4.738,0.616,15.83,105.3438,12.95,14.05,20.09,0,110.6,13.07,13.75,170.6
"2016-04-03 01:00:30",1513492,6.104,207.6,9.9,1.579,17.92,105.3456,12.96,14.09,20.04,0,110.6,13.02,13.75,169.6
"2016-04-03 01:01:00",1513493,4.588,191.8,4.538,0.403,15.17,105.3447,12.95,13.99,19.96,0,110.6,13.07,13.75,153.8
"2016-04-03 01:01:30",1513494,4.56,194.5,3.353,0.123,14.93,105.3479,12.96,13.98,20.02,0,110.5,13.07,13.76,156.5
"2016-04-03 01:02:00",1513495,5.146,199.8,7.088,1.174,16.23,105.3474,12.96,14.08,20.17,0,110.5,13.02,13.76,161.8
"2016-04-03 01:02:30",1513496,5.327,200.9,7.457,1.41,16.63,105.3491,12.97,14.09,20.26,0,110.5,13.03,13.76,162.9
"2016-04-03 01:03:00",1513497,4.231,188.8,1.959,0.307,15.04,105.3488,12.97,14.02,20.32,0,110.5,13.08,13.76,150.8
"2016-04-03 01:03:30",1513498,4.311,197.4,10.9,0.262,14.96,105.3491,12.97,13.97,20.43,0,110.5,13.08,13.76,159.4
"2016-04-03 01:04:00",1513499,4.567,197.3,4.663,0.431,15.15,105.3494,12.97,13.98,20.33,0,110.5,13.09,13.76,159.3
"2016-04-03 01:04:30",1513500,4.152,194.6,3.645,0.246,15.26,105.3518,12.97,13.98,20.38,0,110.5,13.09,13.77,156.6
"2016-04-03 01:05:00",1513501,3.808,211.3,7.714,0.339,15.59,105.3525,12.97,14.01,19.86,0,110.5,13.09,13.77,173.3
"2016-04-03 01:05:30",1513502,6.654,232.6,6.699,1.388,18.39,105.3455,12.96,14.18,19.87,0,110.5,13.04,13.75,194.6
"2016-04-03 01:06:00",1513503,8.4,226.6,8.48,1.588,18.92,105.3419,12.95,14.18,19.86,0,110.5,13.04,13.74,188.6
"2016-04-03 01:06:30",1513504,5.46,209.7,7.11,1.223,16.48,105.3436,12.95,14.03,19.67,0,110.5,13.04,13.75,171.7
"2016-04-03 01:07:00",1513505,3.734,234.8,6.603,0.419,15.16,105.346,12.96,13.92,19.64,0,110.5,13.09,13.76,196.8
"2016-04-03 01:07:30",1513506,5.384,221.8,8.62,1.584,16.35,105.3499,12.97,14,19.73,0,110.5,13.04,13.77,183.8
"2016-04-03 01:08:00",1513507,6,230,11.69,1.467,16.9,105.3491,12.97,14.04,19.78,0,110.5,13.04,13.76,192.0
"2016-04-03 01:08:30",1513508,6.296,222.5,6.358,1.34,16.57,105.3503,12.97,14.03,19.72,0,110.5,13.04,13.77,184.5
"2016-04-03 01:09:00",1513509,4.813,211.7,10.34,0.541,15.21,105.3531,12.98,13.92,19.66,0,110.5,13.09,13.77,173.7
"2016-04-03 01:09:30",1513510,4.968,200.7,4.64,0.409,15.27,105.3509,12.97,13.92,19.75,0,110.5,13.09,13.77,162.7
"2016-04-03 01:10:00",1513511,4.38,184.9,4.986,0.427,15.33,105.3441,12.95,13.91,20.08,0,110.5,13.09,13.75,146.9
"2016-04-03 01:10:30",1513512,3.951,190.1,1.701,0.338,15.46,105.3439,12.95,13.93,20.3,0,110.5,13.09,13.75,152.1
"2016-04-03 01:11:00",1513513,4.908,205.8,13.8,1.46,18.78,105.3419,12.95,14.14,20.36,0,110.5,13.04,13.74,167.8
"2016-04-03 01:11:30",1513514,6.254,229.5,10.25,1.794,18.04,105.3402,12.94,14.1,19.99,0,110.5,13.04,13.74,191.5
"2016-04-03 01:12:00",1513515,5.649,205.3,16.37,1.372,16.99,105.3414,12.95,14.03,19.96,0,110.5,13.04,13.74,167.3
"2016-04-03 01:12:30",1513516,4.796,200.2,10,1.107,15.52,105.3414,12.95,13.92,19.95,0,110.5,13.04,13.74,162.2
"2016-04-03 01:13:00",1513517,5.121,230.8,7.878,1.291,16.71,105.3414,12.95,14.07,19.65,0,110.5,13.04,13.74,192.8
"2016-04-03 01:13:30",1513518,6.998,246.4,4.553,1.151,16.83,105.3414,12.95,13.99,19.6,0,110.5,13.04,13.74,208.4
"2016-04-03 01:14:00",1513519,5.038,237.2,7.433,0.233,15.17,105.3412,12.95,13.91,19.59,0,110.5,13.09,13.74,199.2
"2016-04-03 01:14:30",1513520,5.208,216.1,7.89,0.456,15.16,105.3367,12.93,13.89,19.8,0,110.5,13.09,13.73,178.1
"2016-04-03 01:15:00",1513521,3.389,208.1,16.44,0.778,15.46,105.3296,12.92,13.89,19.75,0,110.5,13.09,13.71,170.1
"2016-04-03 01:15:30",1513522,4.798,219.9,8.35,1.567,17.06,105.3206,12.89,13.96,19.88,0,110.5,13.04,13.69,181.9
"2016-04-03 01:16:00",1513523,5.507,222.4,10.06,1.511,18.9,105.3096,12.86,14.11,20.01,0,110.5,13.04,13.66,184.4
"2016-04-03 01:16:30",1513524,6.096,226.6,8.05,1.328,18.29,105.3076,12.86,14,19.98,0,110.5,13.04,13.66,188.6
"2016-04-03 01:17:00",1513525,5.155,215.1,4.681,0.299,15.43,105.3076,12.86,13.84,19.92,0,110.5,13.04,13.66,177.1
"2016-04-03 01:17:30",1513526,5.997,225,7.281,1.349,17.2,105.3076,12.86,13.95,20.08,0,110.5,13.03,13.66,187.0
"2016-04-03 01:18:00",1513527,6.247,225.7,8.23,1.434,16.54,105.3012,12.84,13.94,20.13,0,110.5,13.04,13.64,187.7
"2016-04-03 01:18:30",1513528,5.237,247.7,7.289,0.461,15.35,105.2916,12.82,13.82,19.74,0,110.5,13.09,13.62,209.7
"2016-04-03 01:19:00",1513529,3.387,249.7,7.955,0.922,15.37,105.2747,12.78,13.81,18.76,0,110.5,13.09,13.57,211.7
"2016-04-03 01:19:30",1513530,1.58,206.1,19,0.425,15.34,105.2738,12.77,13.8,19.04,0,110.5,13.09,13.57,168.1
"2016-04-03 01:20:00",1513531,2.871,209.3,8.61,0.378,15.39,105.2738,12.77,13.77,19.64,0,110.5,13.09,13.57,171.3
"2016-04-03 01:20:30",1513532,2.855,221.8,7.146,0.608,15.93,105.271,12.77,13.85,20.09,0,110.5,13.05,13.56,183.8
"2016-04-03 01:21:00",1513533,3.794,211.7,9.96,1.555,18.32,105.2556,12.73,13.98,20.42,0,110.5,13.05,13.52,173.7
"2016-04-03 01:21:30",1513534,4.255,214.3,9.35,1.532,18.34,105.2424,12.69,13.92,20.5,0,110.5,13.05,13.49,176.3
"2016-04-03 01:22:00",1513535,3.754,212,6.185,1,15.83,105.2457,12.7,13.76,20.32,0,110.5,13.05,13.50,174.0
"2016-04-03 01:22:30",1513536,4.136,203.1,6.37,1.145,16.21,105.2461,12.7,13.75,20.34,0,110.5,13.05,13.50,165.1
"2016-04-03 01:23:00",1513537,3.556,216.3,8.34,1.464,16.41,105.2346,12.67,13.87,20.49,0,110.5,13.05,13.47,178.3
"2016-04-03 01:23:30",1513538,4.402,208.2,8.85,1.04,16.38,105.2195,12.63,13.74,20.29,0,110.5,13.05,13.43,170.2
"2016-04-03 01:24:00",1513539,3.324,213.5,10.88,0.585,15.12,105.2213,12.64,13.67,19.86,0,110.5,13.1,13.44,175.5
"2016-04-03 01:24:30",1513540,3.275,195.7,7.167,0.234,14.98,105.2244,12.65,13.64,20.04,0,110.5,13.1,13.44,157.7
"2016-04-03 01:25:00",1513541,3.806,195.5,6.169,0.26,15.18,105.2182,12.63,13.63,20.3,0,110.5,13.1,13.43,157.5
"2016-04-03 01:25:30",1513542,4.15,196.5,4.017,0.21,15.36,105.2052,12.6,13.62,20.41,0,110.5,13.1,13.39,158.5
"2016-04-03 01:26:00",1513543,5.261,200.8,6.193,1.456,18.37,105.2044,12.6,13.79,20.57,0,110.5,13.05,13.39,162.8
"2016-04-03 01:26:30",1513544,5.855,205.6,8.75,1.431,19.19,105.203,12.59,13.83,20.62,0,110.5,13.05,13.39,167.6
"2016-04-03 01:27:00",1513545,4.879,199.4,7.19,1.506,17.96,105.1921,12.56,13.71,20.51,0,110.5,13.05,13.36,161.4
"2016-04-03 01:27:30",1513546,4.093,204.7,8.11,0.294,15.11,105.1753,12.52,13.61,20.39,0,110.5,13.05,13.32,166.7
"2016-04-03 01:28:00",1513547,5.703,224.7,10.63,1.55,17.65,105.1739,12.52,13.7,20.73,0,110.5,13.05,13.31,186.7
"2016-04-03 01:28:30",1513548,5.386,225.5,3.59,1.003,14.98,105.1587,12.48,13.52,20.63,0,110.5,13.1,13.27,187.5
"2016-04-03 01:29:00",1513549,5.162,245.4,9.67,1.061,15.2,105.1415,12.43,13.49,19.04,0,110.5,13.1,13.23,207.4
"2016-04-03 01:29:30",1513550,4.987,239.1,9.37,0.805,15.29,105.1403,12.43,13.45,18.66,0,110.5,13.11,13.23,201.1
"2016-04-03 01:30:00",1513551,4.84,235,6.902,0.761,15.42,105.1403,12.43,13.44,19.14,0,110.5,13.11,13.23,197.0
"2016-04-03 01:30:30",1513552,5.199,245.3,11.28,1.314,16.93,105.1403,12.43,13.48,19.14,0,110.5,13.06,13.23,207.3
"2016-04-03 01:31:00",1513553,6.936,253.7,9.85,1.667,18.69,105.1344,12.42,13.65,19.2,0,110.5,13.06,13.21,215.7
"2016-04-03 01:31:30",1513554,6.635,253.6,11.19,1.611,17.79,105.1181,12.37,13.59,18.92,0,110.5,13.06,13.17,215.6
"2016-04-03 01:32:00",1513555,5.923,244.2,9.98,1.107,16.51,105.1065,12.35,13.48,19.16,0,110.5,13.06,13.14,206.2
"2016-04-03 01:32:30",1513556,6.629,247.3,6.892,1.246,17.42,105.1065,12.35,13.59,19.37,0,110.5,13.06,13.14,209.3
"2016-04-03 01:33:00",1513557,6.974,244.3,8.23,1.092,16.05,105.1065,12.35,13.46,19.48,0,110.4,13.06,13.14,206.3
"2016-04-03 01:33:30",1513558,6.822,230,7.23,0.496,15.06,105.1065,12.35,13.36,19.42,0,110.4,13.1,13.14,192.0
"2016-04-03 01:34:00",1513559,6.941,245.5,9.53,0.438,15.17,105.1054,12.34,13.35,19.77,0,110.4,13.11,13.14,207.5
"2016-04-03 01:34:30",1513560,5.971,224,9.6,0.596,16.14,105.1021,12.33,13.44,20.28,0,110.4,13.06,13.13,186.0
"2016-04-03 01:35:00",1513561,5.488,218.3,9.27,1.419,17.71,105.0985,12.32,13.44,20.7,0,110.4,13.06,13.12,180.3
"2016-04-03 01:35:30",1513562,5.363,218.9,9.08,1.379,17.23,105.095,12.32,13.56,21.25,0,110.5,13.06,13.11,180.9
"2016-04-03 01:36:00",1513563,6.997,233.4,5.865,1.415,17.56,105.0957,12.32,13.46,20.55,0,110.4,13.06,13.11,195.4
"2016-04-03 01:36:30",1513564,4.739,221.1,8.56,1.42,16.49,105.0917,12.31,13.43,20.38,0,110.4,13.06,13.10,183.1
"2016-04-03 01:37:00",1513565,5.093,216,8.33,1.681,16.48,105.0913,12.31,13.46,21.09,0,110.4,13.06,13.10,178.0
"2016-04-03 01:37:30",1513566,5.428,221.5,7.96,0.634,14.85,105.0943,12.31,13.31,20.62,0,110.4,13.11,13.11,183.5
"2016-04-03 01:38:00",1513567,5.291,234.6,3.19,0.228,14.92,105.0988,12.33,13.3,19.74,0,110.4,13.11,13.12,196.6
"2016-04-03 01:38:30",1513568,5.933,229.8,2.78,0.511,15.05,105.1029,12.34,13.29,19.37,0,110.4,13.12,13.13,191.8
"2016-04-03 01:39:00",1513569,5.772,233.7,7.774,1.183,16.57,105.0982,12.32,13.46,19.75,0,110.4,13.07,13.12,195.7
"2016-04-03 01:39:30",1513570,4.749,250.5,6.393,1.531,17.16,105.0958,12.32,13.43,19.9,0,110.4,13.07,13.11,212.5
"2016-04-03 01:40:00",1513571,5.053,261.8,9.59,1.303,16.49,105.0843,12.29,13.35,20.92,0,110.4,13.07,13.08,223.8
"2016-04-03 01:40:30",1513572,4.59,258.5,7.982,1.299,16.21,105.0741,12.26,13.42,21.77,0,110.4,13.07,13.06,220.5
"2016-04-03 01:41:00",1513573,4.945,262.3,9.07,1.434,17.32,105.0744,12.26,13.43,21.94,0,110.5,13.07,13.06,224.3
"2016-04-03 01:41:30",1513574,4.579,261.6,7.077,1.46,16.84,105.0744,12.26,13.47,22.21,0,110.4,13.07,13.06,223.6
"2016-04-03 01:42:00",1513575,3.258,263.8,6.457,0.223,14.66,105.0724,12.26,13.24,21.98,0,110.4,13.12,13.05,225.8
"2016-04-03 01:42:30",1513576,3.29,275.5,1.16,0.106,14.87,105.0612,12.23,13.23,21.73,0,110.4,13.12,13.02,237.5
"2016-04-03 01:43:00",1513577,3.467,277.5,2.844,0.372,15.11,105.0524,12.21,13.22,21.66,0,110.4,13.12,13.00,239.5
"2016-04-03 01:43:30",1513578,4.03,287.4,3.9,0.333,15.31,105.042,12.18,13.21,21.05,0,110.4,13.12,12.97,249.4
"2016-04-03 01:44:00",1513579,5.307,300.9,9.36,1.43,17.69,105.0406,12.18,13.34,21.01,0,110.4,13.07,12.97,262.9
"2016-04-03 01:44:30",1513580,5.686,308.9,8.8,1.526,17.88,105.0406,12.18,13.33,20.54,0,110.4,13.07,12.97,270.9
"2016-04-03 01:45:00",1513581,4.416,305.8,1.862,0.3,15.47,105.0406,12.18,13.18,20.34,0,110.4,13.12,12.97,267.8
"2016-04-03 01:45:30",1513582,5.496,309.7,7.92,1.363,16.74,105.0361,12.16,13.27,20.04,0,110.4,13.07,12.96,271.7
"2016-04-03 01:46:00",1513583,5.194,316.5,8.51,1.403,17.3,105.0327,12.16,13.36,20.4,0,110.4,13.07,12.95,278.5
"2016-04-03 01:46:30",1513584,5.381,317.1,7.323,1.554,17.7,105.0248,12.14,13.28,20.45,0,110.4,13.07,12.93,279.1
"2016-04-03 01:47:00",1513585,4.142,311.3,6.661,0.97,16.28,105.0169,12.12,13.27,20.45,0,110.4,13.07,12.91,273.3